This is the latest recevied weather packets stored in our database for station/object KY0TEQ-13. If no packets are shown the sender has not sent any weather packets the latest 10 day(s).
| Time | Temp. | Humidity | Pressure | Rain* | Wind** | Luminosity | Snow |
|---|---|---|---|---|---|---|---|
| 1777670594 | 13.33° C | 33% | 1302.1 hPa | 0 mm | - | 203 W/m² | - |
| 1777670291 | 12.78° C | 33% | 1302.3 hPa | 0 mm | - | 732 W/m² | - |
| 1777669988 | 13.33° C | 32% | 1302.3 hPa | 0 mm | - | 691 W/m² | - |
| 1777669382 | 13.33° C | 33% | 1302.4 hPa | 0 mm | - | 677 W/m² | - |
| 1777669078 | 13.33° C | 34% | 1302.3 hPa | 0 mm | - | 641 W/m² | - |
| 1777668775 | 12.78° C | 34% | 1302.3 hPa | 0 mm | - | 633 W/m² | - |
| 1777667865 | 12.78° C | 36% | 1302.3 hPa | 0 mm | - | 797 W/m² | - |
| 1777667562 | 12.78° C | 35% | 1302.2 hPa | 0 mm | - | 827 W/m² | - |
| 1777667259 | 11.67° C | 35% | 1302.3 hPa | 0 mm | - | 397 W/m² | - |
| 1777666956 | 11.67° C | 36% | 1302.6 hPa | 0 mm | - | 342 W/m² | - |
| 1777666350 | 11.67° C | 40% | 1302.3 hPa | 0 mm | - | 579 W/m² | - |
| 1777666047 | 11.11° C | 39% | 1302.2 hPa | 0 mm | - | 390 W/m² | - |
| 1777665744 | 11.11° C | 40% | 1302.3 hPa | 0 mm | - | 409 W/m² | - |
| 1777665441 | 11.11° C | 39% | 1302.2 hPa | 0 mm | - | 280 W/m² | - |
| 1777665137 | 11.11° C | 39% | 1302.4 hPa | 0 mm | - | 275 W/m² | - |
| 1777664833 | 11.67° C | 34% | 1302.4 hPa | 0 mm | - | 302 W/m² | - |
| 1777664529 | 11.67° C | 34% | 1302.4 hPa | 0 mm | - | 251 W/m² | - |
| 1777664225 | 11.11° C | 34% | 1302.4 hPa | 0 mm | - | 206 W/m² | - |
| 1777663621 | 12.22° C | 33% | 1302.2 hPa | 0 mm | - | 209 W/m² | - |
| 1777663318 | 12.22° C | 32% | 1302.3 hPa | 0 mm | - | 190 W/m² | - |
| 1777663015 | 12.22° C | 31% | 1302.2 hPa | 0 mm | - | 163 W/m² | - |
| 1777662713 | 12.22° C | 32% | 1302.3 hPa | 0 mm | - | 190 W/m² | - |
| 1777662409 | 12.22° C | 32% | 1302.2 hPa | 0 mm | - | 218 W/m² | - |
| 1777662104 | 12.78° C | 30% | 1302.3 hPa | 0 mm | - | 181 W/m² | - |
| 1777661794 | 12.78° C | 30% | 1302.2 hPa | 0 mm | - | 142 W/m² | - |
* Rain latest hour (hover to see other rain measurements)
** Current wind speed in m/s (hover to see current wind gust speed)